Location: Christian Reformed Church
(43.0975°N, 93.8113°W)
Time: 23:59:52
(UTC+00:00)

Thor Agena Rocket - Pass Details

Date: 13 December 2025
Orbit: 754 x 803 km, 99.1° (Epoch: 14 January)

Event Time Altitude Azimuth Distance (km) Brightness Sun altitude
Rises 23:33:36 0° 166° (SSE) 3,281 6.9 -9.4°
Reaches altitude 10° 23:35:56 10° 167° (SSE) 2,350 6.2 -9.8°
Maximum altitude 23:41:07 82° 255° (WSW) 799 3.7 -10.7°
Drops below altitude 10° 23:46:18 10° 344° (NNW) 2,336 6.0 -11.6°
Sets 23:48:36 0° 345° (NNW) 3,261 6.7 -12.0°
